Regional Weather Roundup
Issued by NWS

Home | Current Version | Previous Version | Graphics & Text | Print | Product List | Glossary On
Versions: 1 2 3 4 5 6 7 8 9 10 11 12 13 14 15 16 17 18 19 20 21 22 23 24 25 26 27 28 29 30 31 32 33 34 35 36 37 38 39 40 41 42 43 44 45 46 47 48 49 50
000
ASUS45 KBOU 272007
RWRCO

WEATHER ROUNDUP FOR COLORADO
NATIONAL WEATHER SERVICE DENVER/BOULDER CO
200 PM MDT WED AUG 27 2014

NOTE: "FAIR" INDICATES FEW OR NO CLOUDS BELOW 12000 FEET WITH NO
SIGNIFICANT WEATHER AND/OR OBSTRUCTIONS TO VISIBILITY.

COZ001>005-013-030-031-272100-
...NORTHWEST COLORADO...

CITY           SKY/WX    TMP DP  RH WIND       PRES   REMARKS
CRAIG          CLOUDY    62  51  67 NW8       30.26S
HAYDEN         CLOUDY    59  48  67 E6        30.28S
MEEKER         PTSUNNY   58  47  66 W14G25    30.31R
MOUNT WERNER   NOT AVBL
STEAMBOAT SPGS CLOUDY    54  48  80 E10       30.31R
WALDEN         PTSUNNY   52  43  71 S18G31    30.33R
$$

COZ006>008-011-272100-
...WEST CENTRAL VALLEYS...

CITY           SKY/WX    TMP DP  RH WIND       PRES   REMARKS
GRAND JUNCTION PTSUNNY   66  53  63 N6        30.23S
MONTROSE       PTSUNNY   73  48  41 MISG      30.26F
EAGLE          NOT AVBL
RIFLE            N/A     62  53  72 W13       30.26S
DELTA          PTSUNNY   75  50  40 S8        30.22F THUNDER
NUCLA          NOT AVBL
$$

COZ017>023-064>068-272100-
...SOUTHWEST COLORADO...

CITY           SKY/WX    TMP DP  RH WIND       PRES   REMARKS
DURANGO        PTSUNNY   68  46  45 SW12G23   30.33F
CORTEZ         SUNNY     71  50  47 S8        30.31F
PAGOSA SPRINGS PTSUNNY   65  43  44 W12       30.38F
TELLURIDE      PTSUNNY   54  45  71 CALM      30.45S
WOLF CREEK PAS CLOUDY    41  37  87 SW17G29   30.59S
$$

COZ009-010-012-014-032>034-037-058>063-272100-
...CENTRAL COLORADO...

CITY           SKY/WX    TMP DP  RH WIND       PRES   REMARKS
ASPEN          MOSUNNY   66  41  40 N9        30.31F
BUENA VISTA    MOSUNNY   65  38  37 W24G45    30.32R
COPPER MTN     CLOUDY    45  37  76 NW6       30.56F
BERTHOUD PASS  LGT RAIN  36  34  93 W14G21    30.59R VSB 1/4
COTTONWOOD PAS LGT RAIN  52  39  62 W15G26    30.45R
GUNNISON       MOSUNNY   63  39  42 SW10      30.35F
KREMMLING      PTSUNNY   61  41  48 W5        30.33S
LEADVILLE      MOSUNNY   57  35  43 NW7       30.41F
SALIDA         MOSUNNY   72  38  29 W15G22    30.35F
SUNLIGHT       TSTM      50  45  81 CALM      30.51S
WILKERSON PASS NOT AVBL
$$

COZ069>075-272100-
...SAN LUIS VALLEY/SANGRE DE CRISTO MOUNTAINS...

CITY           SKY/WX    TMP DP  RH WIND       PRES   REMARKS
ALAMOSA        MOSUNNY   75  38  26 SW12G18   30.30F
LA VETA PASS   NOT AVBL
SAGUACHE       CLOUDY    63  46  55 SE6       30.33F
$$

COZ035-036-038>040-272100-
...NORTHERN COLORADO FRONT RANGE...

CITY           SKY/WX    TMP DP  RH WIND       PRES   REMARKS
DENVER INTL AP MOSUNNY   75  57  53 N8        30.14S
DMNS CITY PARK   N/A     77  53  43 N7        30.12F
AURORA         MOSUNNY   74  55  50 N12       30.15F
FRONT RANGE AP NOT AVBL
ERIE MUNI ARPT MOSUNNY   76  54  45 NE7       30.11F
BOULDER MUN AP MOSUNNY   73  52  46 NE3       30.13F
CENTENNIAL     MOSUNNY   75  49  39 N8        30.15F
BROOMFIELD     PTSUNNY   75  50  41 VRB3      30.15F
FORT COLLINS   MOSUNNY   75  55  50 NE10      30.14F
LONGMONT       MOSUNNY   80  57  44 NE7       30.13F
$$

COZ041-046-047-076>085-087-088-272100-
...PIKES PEAK/PALMER DIVIDE AND SOUTHERN FOOTHILLS...

CITY           SKY/WX    TMP DP  RH WIND       PRES   REMARKS
COLO. SPRINGS  MOSUNNY   76  53  44 CALM      30.17F
A. F. ACADEMY  SUNNY     74  51  43 VRB6      30.18F
ELLICOTT       SUNNY     77  50  38 SW6       30.16F
FALCON         SUNNY     74  50  43 S5        30.23S
FORT CARSON    MOSUNNY   78  52  40 E6        30.14F
LIMON          SUNNY     77  55  46 S8        30.14F
MONUMENT HILL  SUNNY     70  50  49 NE6       30.23S
TRINIDAD       SUNNY     80  50  34 VRB3      30.16F
$$

COZ042>045-048>051-090-091-272100-
...NORTHEAST COLORADO...

CITY           SKY/WX    TMP DP  RH WIND       PRES   REMARKS
GREELEY ARPT   MOSUNNY   75  55  50 N3        30.12F
AKRON          PTSUNNY   75  60  59 SE10      30.10F
BURLINGTON     PTSUNNY   77  62  59 S16       30.10F
WRAY             N/A     82  63  53 S14G23    30.07F
STERLING       PTSUNNY   81  64  57 CALM      30.07S
HOLYOKE        PTSUNNY   81  64  57 S8        30.08F
FORT MORGAN    PTSUNNY   79  57  47 NE3       30.11S
$$

COZ086-089-092>099-272100-
...SOUTHEAST COLORADO...

CITY           SKY/WX    TMP DP  RH WIND       PRES   REMARKS
PUEBLO         SUNNY     85  48  27 S12       30.07F
LA JUNTA         N/A     81  56  42 VRB3      30.07
LAMAR          PTSUNNY   85  61  44 SW12      30.03F
SPRINGFIELD      N/A     80  60  50 SW14G22   30.10F
$$



USA.gov is the U.S. government's official web portal to all federal, state and local government web resources and services.